EW9733 Weather Reports


time (UTC)temp
C
wind
direction
speed
KPH
gust
KPH
rain 1hr
cm
rain 24hr
cm
rain mn
cm
humidity
%
barometer
mb
20260905220016 19 24 3.2 8.0 0.00 0.03 0.03 75 1010.3
20260905214515 19 152 3.2 12.9 0.00 0.03 0.03 73 1010.1
20260905213013 20 80 1.6 14.5 0.00 0.03 0.03 72 1010.0
20260905211512 20 95 1.6 11.3 0.00 0.03 0.03 73 1009.9
20260905210011 20 61 1.6 20.9 0.00 0.03 0.03 73 1010.0
20260905204512 20 72 0.0 9.7 0.00 0.03 0.03 76 1009.8
20260905203009 20 172 3.2 22.5 0.00 0.03 0.03 75 1009.8
20260905201508 20 170 4.8 14.5 0.00 0.03 0.03 73 1009.6
20260905200009 20 28 3.2 17.7 0.00 0.03 0.03 75 1009.3
20260905194509 20 185 8.0 22.5 0.00 0.03 0.03 74 1009.2
20260905193011 20 42 4.8 22.5 0.00 0.03 0.03 74 1009.4
20260905191506 20 52 1.6 16.1 0.00 0.03 0.03 77 1009.4
20260905190012 20 40 1.6 8.0 0.00 0.03 0.03 78 1009.4
20260905184508 19 17 3.2 16.1 0.00 0.03 0.03 77 1009.6
20260905183003 20 25 8.0 20.9 0.00 0.03 0.03 77 1009.6
20260905181510 20 28 3.2 19.3 0.00 0.03 0.03 77 1009.7
20260905180004 20 71 1.6 17.7 0.00 0.03 0.03 79 1009.6
20260905174504 20 28 4.8 17.7 0.00 0.03 0.03 79 1009.4
20260905173109 20 82 1.6 16.1 0.00 0.03 0.03 78 1009.3
20260905171558 21 22 6.4 17.7 0.00 0.03 0.03 75 1009.1
20260905170057 21 355 0.0 16.1 0.00 0.03 0.03 77 1009.1
20260905164556 21 24 4.8 17.7 0.00 0.03 0.03 75 1009.0
20260905163103 21 39 1.6 14.5 0.00 0.03 0.03 74 1008.9
20260905161553 21 84 1.6 16.1 0.00 0.03 0.03 75 1008.8
20260905160057 21 23 4.8 19.3 0.00 0.03 0.03 74 1008.7
20260905154552 20 48 1.6 8.0 0.00 0.03 0.03 78 1008.8
20260905153053 20 49 8.0 20.9 0.00 0.03 0.03 78 1008.7
20260905151548 20 45 0.0 12.9 0.00 0.03 0.03 76 1008.8
20260905150046 21 31 0.0 22.5 0.00 0.03 0.03 74 1008.6
20260905144551 22 38 0.0 8.0 0.00 0.03 0.03 74 1008.5
20260905143042 21 67 1.6 12.9 0.00 0.03 0.03 74 1008.2
20260905141602 21 90 0.0 4.8 0.00 0.03 0.03 76 1008.4
20260905140048 21 67 0.0 8.0 0.00 0.03 0.03 76 1008.6
20260905134534 21 306 0.0 12.9 0.00 0.03 0.03 79 1008.5
20260905133042 20 92 4.8 11.3 0.00 0.03 0.03 81 1008.4
20260905131539 20 194 1.6 9.7 0.00 0.03 0.03 84 1008.2
20260905130023 18 90 4.8 16.1 0.03 0.03 0.03 89 1008.2
20260905124517 18 44 0.0 14.5 0.03 0.03 0.03 93 1008.1
20260905123013 17 355 1.6 9.7 0.03 0.03 0.03 94 1008.0
20260905121509 16 58 0.0 6.4 0.03 0.03 0.03 94 1007.8
20260905120006 16 131 0.0 4.8 0.00 0.00 0.00 95 1007.8
20260905114626 15 163 0.0 3.2 0.00 0.00 0.00 94 1007.8
20260905113055 15 91 0.0 0.0 0.00 0.00 0.00 94 1007.7
20260905111553 14 91 0.0 0.0 0.00 0.00 0.00 93 1007.5
20260905110048 14 91 0.0 0.0 0.00 0.00 0.00 93 1007.2
20260905104547 13 91 0.0 0.0 0.00 0.00 0.00 93 1007.0
20260905103045 13 91 0.0 0.0 0.00 0.00 0.00 93 1007.0
20260905101545 13 91 0.0 0.0 0.00 0.00 0.00 93 1007.0
20260905100101 13 91 0.0 0.0 0.00 0.00 0.00 93 1006.9
20260905094542 13 91 0.0 0.0 0.00 0.00 0.00 93 1006.9
20260905093041 14 91 0.0 0.0 0.00 0.00 0.00 92 1007.0
20260905091552 14 91 0.0 0.0 0.00 0.00 0.00 92 1006.9
20260905090039 14 91 0.0 0.0 0.00 0.00 0.00 92 1006.9
20260905084536 14 91 0.0 0.0 0.00 0.00 0.00 92 1006.8
20260905083036 14 91 0.0 0.0 0.00 0.00 0.00 92 1006.7
20260905081534 15 91 0.0 0.0 0.00 0.00 0.00 92 1006.8
20260905080039 15 91 0.0 0.0 0.00 0.00 0.00 92 1006.8
20260905074543 15 91 0.0 0.0 0.00 0.00 0.00 92 1006.7
20260905073050 15 91 0.0 0.0 0.00 0.00 0.00 92 1006.7
20260905071531 15 91 0.0 0.0 0.00 0.00 0.00 92 1006.8
20260905070126 15 91 0.0 0.0 0.00 0.00 0.00 92 1006.9
20260905064525 15 91 0.0 0.0 0.00 0.00 0.00 92 1007.2
20260905063025 15 91 0.0 0.0 0.00 0.00 0.00 91 1007.2
20260905061522 15 91 0.0 0.0 0.00 0.00 0.00 91 1007.3
20260905060020 16 91 0.0 0.0 0.00 0.00 0.00 91 1007.3
20260905054518 16 91 0.0 0.0 0.00 0.00 0.00 91 1007.3
20260905053017 16 91 0.0 0.0 0.00 0.00 0.00 91 1007.4
20260905051516 16 91 0.0 0.0 0.00 0.00 0.00 91 1007.3
20260905050017 16 91 0.0 0.0 0.00 0.00 0.00 90 1007.1
20260905044512 16 91 0.0 0.0 0.00 0.00 0.00 90 1007.1
20260905043011 16 91 0.0 0.0 0.00 0.00 0.00 90 1007.1
20260905041510 17 91 0.0 0.0 0.00 0.00 0.00 90 1007.1
20260905040009 17 91 0.0 0.0 0.00 0.00 0.00 89 1007.2
20260905034506 17 91 0.0 0.0 0.00 0.00 0.00 89 1007.3
20260905033017 17 91 0.0 0.0 0.00 0.00 0.00 89 1007.2
20260905031506 17 91 0.0 0.0 0.00 0.00 0.00 89 1007.3
20260905030007 17 91 0.0 0.0 0.00 0.00 0.00 88 1007.2
20260905024505 18 91 0.0 0.0 0.00 0.00 0.00 87 1007.2
20260905023023 18 91 0.0 0.0 0.00 0.00 0.00 87 1007.3
20260905021506 18 91 0.0 0.0 0.00 0.00 0.00 87 1007.3
20260905020003 18 91 0.0 0.0 0.00 0.00 0.00 87 1007.5
20260905014503 19 91 0.0 0.0 0.00 0.00 0.00 86 1007.7
20260905013002 19 91 0.0 0.0 0.00 0.00 0.00 86 1007.6
20260905011503 20 91 0.0 0.0 0.00 0.00 0.00 85 1007.8
20260905010001 20 91 0.0 0.0 0.00 0.00 0.00 85 1007.9
20260905004502 20 91 0.0 0.0 0.00 0.00 0.00 84 1007.7
20260905003100 21 91 0.0 0.0 0.00 0.00 0.00 83 1007.6
20260905003001 21 91 0.0 0.0 0.00 0.00 0.00 83 1007.6
20260905001609 21 91 0.0 0.0 0.00 0.00 0.00 83 1007.5
20260905000116 21 91 0.0 0.0 0.00 0.00 0.00 81 1007.4
20260904234559 22 91 0.0 1.6 0.00 0.00 0.00 80 1007.2
20260904233058 22 91 0.0 1.6 0.00 0.00 0.00 78 1007.1
20260904231601 23 91 0.0 1.6 0.00 0.00 0.00 75 1007.0
20260904230057 23 49 0.0 3.2 0.00 0.00 0.00 74 1007.0
20260904224601 25 49 0.0 0.0 0.00 0.00 0.00 71 1006.9
20260904223055 25 49 0.0 1.6 0.00 0.00 0.00 69 1006.9
20260904221551 26 49 0.0 4.8 0.00 0.00 0.00 67 1006.7